Date,TemperatureHighF,TemperatureAvgF,TemperatureLowF,DewpointHighF,DewpointAvgF,DewpointLowF,HumidityHigh,HumidityAvg,HumidityLow,PressureMaxIn,PressureMinIn,WindSpeedMaxMPH,WindSpeedAvgMPH,GustSpeedMaxMPH,PrecipitationSumIn
2013-1-1,56.3,54.1,51.8,52.4,49.3,45.9,95,84,76,30.18,29.97,6,1,10,0.01
2013-1-2,53.5,50.2,43.4,52.7,48.2,40.6,97,93,85,30.22,29.90,8,1,13,0.12
2013-1-3,43.4,41.0,33.4,42.1,38.6,32.1,96,91,84,30.28,30.15,6,1,9,0.08
2013-1-4,54.7,40.1,28.1,38.5,32.2,27.2,98,77,40,30.34,30.22,7,1,12,0.01
2013-1-5,53.0,39.0,25.8,35.4,30.7,24.3,97,75,38,30.41,30.30,6,1,10,0.01
2013-1-6,50.5,46.2,38.2,46.0,42.1,35.5,95,86,71,30.31,30.08,4,0,7,0.01
2013-1-7,55.6,45.9,34.5,44.3,38.2,33.1,97,77,46,30.44,30.16,11,2,21,0.00
2013-1-8,62.1,46.3,34.2,53.1,42.3,31.6,96,86,69,30.45,30.36,9,1,12,0.00
2013-1-9,69.7,56.6,43.6,58.1,51.8,42.6,98,85,63,30.43,30.36,7,1,10,0.00
2013-1-10,66.7,56.7,50.1,54.6,48.5,38.7,98,76,54,30.50,30.42,14,3,23,0.00
2013-1-11,72.4,60.3,46.7,68.4,57.5,41.6,97,90,78,30.44,30.17,7,2,12,0.18
2013-1-12,80.5,67.8,60.4,66.5,62.3,58.6,98,84,55,30.18,30.07,7,1,13,0.01
2013-1-13,77.5,64.7,55.0,65.3,60.1,53.9,98,86,62,30.15,30.06,8,1,12,0.00
2013-1-14,67.2,63.0,60.6,61.9,60.5,58.8,96,92,82,30.17,30.08,6,2,9,0.01
2013-1-15,76.7,61.3,54.9,67.2,58.5,53.8,99,91,65,30.15,30.04,7,2,12,0.00
2013-1-16,77.5,66.6,57.7,67.2,61.8,56.3,99,86,63,30.04,29.92,14,3,22,0.01
2013-1-17,78.5,62.2,42.4,65.4,58.1,40.7,98,88,58,29.97,29.74,14,4,21,1.04
2013-1-18,52.3,41.8,31.7,40.7,34.4,28.6,95,77,43,30.53,29.95,12,3,22,0.01
2013-1-19,63.8,43.5,30.0,45.0,35.4,27.3,96,76,43,30.52,30.22,6,1,10,0.01
2013-1-20,68.9,51.2,39.2,47.7,40.4,35.1,98,72,30,30.22,30.01,9,2,16,0.00
2013-1-21,64.8,49.8,33.4,48.2,40.2,32.1,98,72,43,30.09,29.92,9,2,15,0.00
2013-1-22,50.4,41.9,27.3,36.5,22.5,15.2,77,48,26,30.28,29.98,9,2,14,0.00
2013-1-23,46.7,33.4,23.5,25.9,15.7,7.0,81,51,24,30.41,30.16,7,0,10,0.00
2013-1-24,50.6,39.7,25.1,40.8,25.0,9.1,88,57,36,30.54,30.02,12,4,20,0.00
2013-1-25,37.6,29.7,20.0,32.8,22.6,10.9,94,75,54,30.54,30.14,8,1,13,0.07
2013-1-26,50.2,37.6,28.4,38.0,31.9,26.5,93,80,60,30.40,30.15,7,1,12,0.00
2013-1-27,46.2,34.3,25.7,31.1,27.8,24.2,95,79,50,30.58,30.40,11,2,17,0.01
2013-1-28,58.6,45.2,30.5,50.7,40.5,26.3,97,84,72,30.53,30.29,5,1,8,0.00
2013-1-29,77.5,61.4,49.5,62.7,56.3,48.7,98,85,54,30.29,30.14,8,2,12,0.01
2013-1-30,76.1,67.9,56.2,64.9,62.7,55.1,98,84,68,30.16,29.60,18,8,32,0.00
2013-1-31,71.2,53.3,44.1,67.2,37.9,26.1,93,59,32,30.11,29.53,20,7,40,0.15
2013-2-1,56.2,43.5,24.9,32.9,22.3,3.3,76,45,15,30.40,30.05,16,4,27,0.00
2013-2-2,48.6,35.5,20.2,41.9,25.7,13.9,87,69,48,30.44,30.07,8,1,13,0.00
2013-2-3,57.1,45.0,33.4,41.7,34.5,28.5,93,70,34,30.07,29.88,13,2,20,0.00
2013-2-4,50.7,39.3,26.5,36.3,29.9,24.5,95,72,39,30.18,30.01,6,1,8,0.00
2013-2-5,68.3,52.5,36.5,48.5,40.6,34.3,95,68,30,30.08,29.92,11,2,17,0.00
2013-2-6,69.1,53.4,42.4,51.0,44.3,39.5,97,75,34,30.26,30.01,8,2,12,0.00
2013-2-7,60.6,50.6,39.3,54.3,47.9,38.0,97,91,72,30.28,29.80,17,6,29,1.11
2013-2-8,61.7,54.5,47.2,55.5,48.5,38.6,98,81,60,30.03,29.58,16,4,24,0.40
2013-2-9,57.7,44.5,30.6,38.7,30.4,24.8,91,61,30,30.39,30.03,11,2,20,0.00
2013-2-10,56.3,43.9,28.2,51.6,38.0,24.4,93,81,60,30.49,30.27,9,2,15,0.00
2013-2-11,66.3,61.9,53.1,62.5,58.7,50.5,94,89,83,30.33,29.97,17,6,24,0.11
2013-2-12,65.8,57.6,50.6,59.4,51.9,41.3,96,83,42,30.10,29.94,8,2,13,0.23
2013-2-13,61.6,53.0,47.0,58.8,50.8,45.4,98,93,80,30.01,29.67,12,3,22,0.42
2013-2-14,53.4,46.7,38.4,48.2,40.6,36.3,95,80,59,30.11,29.83,6,1,12,0.00
2013-2-15,59.4,45.1,32.8,44.2,37.6,31.8,98,78,41,30.11,29.98,9,1,13,0.01
2013-2-16,54.5,40.7,34.1,43.4,37.2,32.6,98,88,65,29.98,29.74,10,2,22,0.24
2013-2-17,42.6,35.2,29.0,32.8,20.9,11.4,94,59,30,30.31,29.91,13,4,27,0.01
2013-2-18,48.7,35.8,21.4,28.6,23.7,16.3,94,65,32,30.46,30.31,10,2,14,0.00
2013-2-19,63.7,50.0,31.3,54.6,45.6,28.7,98,85,68,30.32,29.95,16,3,31,0.00
2013-2-20,60.2,47.9,35.0,45.4,32.3,17.9,95,61,21,30.14,29.99,9,2,13,0.00
2013-2-21,61.7,43.5,30.2,38.6,30.5,22.7,93,65,25,30.25,30.10,7,1,12,0.00
2013-2-22,51.5,45.5,40.0,50.4,39.2,27.7,97,79,61,30.33,30.07,13,4,18,0.20
2013-2-23,52.6,47.0,43.9,51.8,46.2,43.1,98,97,96,30.07,29.84,6,1,10,0.32
2013-2-24,67.1,52.0,41.8,51.8,46.6,40.1,98,84,48,30.02,29.78,8,2,14,0.02
2013-2-25,46.2,42.5,37.7,40.4,35.4,32.1,96,77,60,30.20,30.02,12,3,18,0.00
2013-2-26,67.7,56.9,42.4,66.1,54.5,35.4,98,92,75,30.10,29.62,15,6,24,0.39
2013-2-27,63.2,53.9,48.2,57.8,45.4,40.7,93,74,50,29.84,29.65,13,4,23,0.01
2013-2-28,60.1,49.0,36.3,44.8,38.5,33.1,91,69,42,29.87,29.73,13,3,20,0.01
2013-3-1,57.2,44.9,34.6,34.8,32.2,29.9,89,64,38,29.92,29.82,9,2,14,0.00
2013-3-2,54.5,40.6,30.2,34.0,31.1,28.5,96,72,41,29.92,29.81,7,1,13,0.15
2013-3-3,51.4,40.1,31.9,33.7,26.3,23.6,89,60,36,29.98,29.85,10,2,18,0.00
2013-3-4,53.6,38.7,27.7,25.9,21.8,18.1,78,54,26,30.14,29.98,12,2,21,0.00
2013-3-5,65.7,51.5,31.5,56.0,37.5,24.9,89,61,34,30.14,29.65,16,4,24,0.09
2013-3-6,61.1,50.3,42.3,56.5,35.9,25.4,89,59,38,29.99,29.55,18,7,39,0.36
2013-3-7,58.7,46.2,35.1,34.8,32.1,29.2,80,60,38,30.21,29.98,13,3,20,0.00
2013-3-8,58.2,44.7,30.6,32.3,29.2,26.3,86,58,31,30.26,30.11,12,2,20,0.00
2013-3-9,65.2,48.2,34.3,41.6,34.5,28.8,92,62,35,30.31,30.23,9,2,15,0.00
2013-3-10,61.7,48.1,32.4,45.4,32.8,11.0,97,64,16,30.33,30.25,10,2,16,0.00
2013-3-11,69.5,56.7,42.5,57.4,51.2,41.3,98,83,58,30.28,29.98,12,2,18,0.00
2013-3-12,70.5,62.6,55.4,63.8,59.8,54.1,98,91,74,29.98,29.79,13,3,20,0.50
2013-3-13,63.5,53.9,43.4,54.5,37.3,27.8,96,57,27,30.08,29.90,10,3,17,0.00
2013-3-14,55.7,44.3,33.5,30.5,24.7,20.5,73,48,28,30.25,30.08,12,3,21,0.00
2013-3-15,62.3,47.6,28.7,43.2,30.9,20.6,93,58,24,30.22,30.01,11,2,17,0.00
2013-3-16,79.4,64.7,54.3,51.6,48.2,43.2,70,57,34,30.01,29.77,16,6,25,0.00
2013-3-17,74.7,59.0,49.5,54.0,49.6,45.8,88,72,45,30.13,29.88,16,5,26,0.00
2013-3-18,63.1,53.3,46.9,53.7,48.7,43.3,96,85,69,30.15,29.89,10,2,16,0.00
2013-3-19,72.3,58.8,47.4,55.9,49.7,38.1,98,75,34,29.99,29.76,10,2,17,0.34
2013-3-20,60.3,49.4,38.1,40.3,28.2,15.9,87,47,19,30.13,29.83,9,2,15,0.00
2013-3-21,55.1,43.7,32.0,34.5,26.8,14.4,94,57,21,29.98,29.72,12,3,22,0.00
2013-3-22,54.4,40.4,28.2,33.4,21.7,15.4,72,49,26,30.12,29.98,8,2,16,0.00
2013-3-23,58.1,44.7,32.6,42.3,36.7,29.9,95,75,43,30.08,29.92,5,0,8,0.03
2013-3-24,57.9,48.4,40.9,57.0,46.6,38.5,97,94,83,29.94,29.42,20,4,29,0.78
2013-3-25,54.4,47.3,42.0,43.0,36.4,27.5,96,69,40,29.86,29.54,14,5,26,0.00
2013-3-26,53.7,43.8,33.7,33.2,29.3,26.3,80,58,38,30.12,29.86,12,3,18,0.00
2013-3-27,58.0,46.2,34.8,32.7,28.3,24.5,80,53,28,30.23,30.12,12,2,20,0.00
2013-3-28,59.9,45.3,30.0,33.6,28.0,25.3,83,55,29,30.28,30.16,12,2,21,0.00
2013-3-29,62.2,48.0,29.9,40.7,32.3,26.5,90,58,28,30.35,30.21,10,1,17,0.00
2013-3-30,62.5,53.0,46.8,48.9,44.0,39.9,93,73,46,30.28,30.15,7,1,12,0.05
2013-3-31,72.5,60.8,47.6,57.5,53.5,44.0,96,78,57,30.15,29.88,15,4,23,0.01
2013-4-1,74.7,63.5,54.0,62.1,57.4,51.8,96,82,51,29.92,29.83,10,3,18,0.01
2013-4-2,61.3,53.3,43.4,53.4,41.0,31.6,97,65,37,30.15,29.92,10,2,15,0.00
2013-4-3,59.2,50.7,42.6,45.8,39.3,30.3,95,68,35,30.29,30.12,12,2,17,0.01
2013-4-4,58.6,50.8,47.0,58.0,47.0,39.4,98,87,69,30.30,29.79,15,6,24,0.87
2013-4-5,58.6,49.1,42.6,58.0,46.2,41.8,98,90,71,30.05,29.80,10,2,16,0.00
2013-4-6,63.7,49.6,37.0,49.3,41.6,36.1,98,76,42,30.30,30.04,13,3,20,0.01
2013-4-7,68.3,54.6,36.1,57.5,48.2,34.5,97,80,64,30.29,30.17,9,2,16,0.00
2013-4-8,77.6,64.6,48.8,61.8,56.9,47.7,98,78,53,30.22,30.13,12,2,20,0.00
2013-4-9,81.5,69.1,55.0,65.9,61.0,53.7,98,77,49,30.24,30.12,8,2,14,0.00
2013-4-10,82.5,71.4,62.3,65.2,62.0,58.6,96,75,49,30.17,30.02,13,4,18,0.00
2013-4-11,81.7,71.6,62.7,69.7,65.6,60.6,96,82,58,30.04,29.85,13,4,20,0.00
2013-4-12,79.8,70.7,67.2,72.6,67.9,64.2,98,91,77,29.88,29.69,14,5,24,1.62
2013-4-13,70.1,62.2,50.4,66.7,54.9,47.8,95,78,49,30.02,29.75,9,2,16,0.01
2013-4-14,74.7,61.6,45.7,59.9,52.2,44.9,99,74,45,30.12,30.02,7,1,10,0.00
2013-4-15,70.3,64.7,58.9,62.3,60.1,55.8,95,85,73,30.16,29.92,15,3,25,0.53
2013-4-16,75.7,65.5,56.8,65.9,60.5,55.8,98,85,68,30.26,30.15,9,2,13,0.00
2013-4-17,79.2,66.7,53.7,66.2,60.5,52.9,98,82,59,30.25,30.12,7,1,10,0.00
2013-4-18,76.0,67.4,56.1,66.6,62.6,55.0,99,86,66,30.18,30.05,12,3,18,0.02
2013-4-19,80.3,72.5,67.1,72.6,68.7,65.7,97,88,75,30.07,29.85,16,5,26,0.66
2013-4-20,67.1,57.5,45.6,66.5,51.6,42.8,98,82,58,30.24,29.84,7,2,14,0.40
2013-4-21,63.2,52.8,40.6,49.5,43.7,38.3,98,73,54,30.45,30.24,18,6,29,0.00
2013-4-22,62.5,52.3,43.7,52.3,46.4,37.9,93,81,67,30.41,30.17,12,3,21,0.01
2013-4-23,70.3,57.1,50.6,54.8,51.5,49.1,95,83,56,30.21,30.11,9,2,20,0.01
2013-4-24,75.5,62.2,45.8,62.6,55.8,44.9,98,81,58,30.20,30.03,13,3,21,0.00
2013-4-25,75.0,64.7,53.5,63.6,59.3,50.5,92,83,66,30.25,30.05,14,3,18,0.03
2013-4-26,70.5,58.2,44.2,52.8,47.6,38.5,97,71,38,30.40,30.24,11,2,15,0.01
2013-4-27,71.4,61.4,51.0,53.4,47.8,37.6,94,65,31,30.39,30.29,13,3,18,0.00
2013-4-28,71.5,65.3,60.4,59.5,54.2,49.8,82,68,49,30.29,30.11,10,4,17,0.00
2013-4-29,71.9,65.3,62.5,65.4,61.9,58.9,98,89,76,30.12,29.96,16,1,20,1.01
2013-4-30,71.9,65.0,59.6,64.6,61.6,58.8,99,89,73,30.08,29.98,9,2,15,0.01
2013-5-1,73.7,64.0,57.8,64.1,60.4,56.1,97,89,66,30.20,30.07,10,3,18,0.07
2013-5-2,70.2,63.7,58.1,63.9,60.2,54.7,97,89,76,30.25,30.15,15,5,23,0.03
2013-5-3,66.5,59.8,54.5,60.4,54.2,46.3,95,82,64,30.16,30.09,18,6,26,0.03
2013-5-4,68.3,59.2,51.3,58.4,53.8,47.9,93,83,67,30.10,29.98,16,6,25,0.00
2013-5-5,69.2,62.0,53.7,63.3,58.4,51.7,94,88,78,30.00,29.90,19,6,27,0.05
2013-5-6,76.5,67.7,56.8,66.3,61.4,54.5,95,81,59,29.93,29.82,11,4,17,0.24
2013-5-7,72.4,62.3,51.6,56.5,52.8,47.8,98,74,45,29.94,29.86,11,2,17,0.00
2013-5-8,77.5,66.0,51.9,61.0,55.7,50.8,99,72,44,30.01,29.92,12,3,22,0.00
2013-5-9,85.0,73.2,60.7,65.0,60.6,56.8,94,67,39,30.05,29.94,8,2,14,0.00
2013-5-10,85.3,74.4,62.9,68.9,63.8,59.8,92,71,48,30.08,29.97,11,3,18,0.00
2013-5-11,83.3,75.7,70.7,71.8,66.6,60.3,89,74,47,30.04,29.82,12,4,22,0.00
2013-5-12,82.3,74.2,63.1,67.3,60.8,50.1,89,66,35,29.98,29.78,10,2,16,0.00
2013-5-13,73.1,62.5,49.5,52.1,43.5,37.1,74,52,29,30.14,29.98,10,2,20,0.00
2013-5-14,71.6,58.9,42.2,48.6,42.4,35.7,91,58,30,30.26,30.14,9,1,15,0.00
2013-5-15,83.2,70.6,51.7,62.6,57.3,48.6,97,65,46,30.16,29.97,12,4,22,0.00
2013-5-16,91.7,77.4,67.1,67.0,63.7,59.9,81,64,36,30.01,29.92,10,4,18,0.00
2013-5-17,90.5,77.9,68.1,69.7,64.6,59.6,87,66,36,30.11,30.00,9,3,14,0.00
2013-5-18,82.8,74.7,66.0,71.9,67.3,61.8,95,78,61,30.17,30.10,10,2,14,0.00
2013-5-19,82.0,73.9,66.2,70.8,68.4,64.5,97,84,66,30.17,30.09,11,2,17,0.00
2013-5-20,79.4,73.4,68.7,71.4,69.3,67.0,97,88,72,30.16,30.03,11,2,20,0.29
2013-5-21,82.1,74.4,69.1,72.7,69.5,67.1,97,85,67,30.09,29.97,9,2,14,0.00
2013-5-22,82.2,75.2,67.1,72.9,70.0,65.7,98,85,68,30.05,29.97,12,3,21,0.16
2013-5-23,81.0,74.9,69.4,73.1,70.4,68.3,98,86,70,30.00,29.84,11,2,20,0.24
2013-5-24,80.8,72.1,56.2,70.6,59.8,43.1,95,68,35,30.16,29.77,12,2,24,0.00
2013-5-25,77.6,61.9,46.0,50.6,43.9,39.8,85,55,28,30.29,30.13,7,1,15,0.00
2013-5-26,75.0,62.7,52.8,55.9,53.0,49.6,96,73,45,30.26,30.16,5,0,8,0.00
2013-5-27,78.1,65.6,48.6,61.7,54.1,47.2,98,70,43,30.28,30.20,8,1,12,0.00
2013-5-28,80.7,70.9,57.0,67.4,63.2,55.6,98,78,59,30.28,30.20,9,2,15,0.00
2013-5-29,82.5,73.6,62.5,71.1,65.4,61.3,98,77,53,30.28,30.20,9,2,16,0.00
2013-5-30,83.3,74.2,61.4,73.5,68.6,60.2,98,83,68,30.28,30.21,10,2,15,0.00
2013-5-31,83.8,75.9,65.3,74.1,70.1,64.2,98,83,67,30.24,30.15,8,1,13,0.00
2013-6-1,84.4,75.4,65.3,72.7,68.7,64.2,99,81,57,30.18,30.09,10,2,17,0.00
2013-6-2,84.9,76.5,65.8,72.8,70.0,64.6,98,81,64,30.12,29.97,11,3,17,0.00
2013-6-3,83.5,73.8,67.7,76.3,71.4,66.3,98,92,78,29.99,29.85,9,2,15,1.04
2013-6-4,81.4,74.0,67.7,73.6,70.2,67.0,99,89,73,30.09,29.92,8,2,13,0.00
2013-6-5,80.0,74.7,70.1,69.7,68.2,64.7,91,81,61,30.11,30.02,12,5,18,0.00
2013-6-6,79.6,75.6,73.4,74.7,72.3,69.7,96,89,80,30.05,29.85,10,3,17,0.27
2013-6-7,81.3,77.1,72.6,76.4,73.4,71.2,98,88,77,29.86,29.58,19,7,35,1.45
2013-6-8,89.3,81.1,76.0,76.2,74.1,72.6,96,80,62,30.11,29.86,11,4,20,0.08
2013-6-9,85.5,78.6,73.2,78.3,74.8,71.7,97,89,73,30.17,30.09,9,2,16,0.45
2013-6-10,85.8,77.9,70.4,76.7,73.3,68.2,97,86,67,30.15,29.98,13,4,24,0.04
2013-6-11,87.5,78.6,73.4,75.2,72.6,69.6,94,83,62,30.01,29.89,10,4,16,0.01
2013-6-12,94.3,83.1,69.5,77.0,72.5,67.7,98,74,43,29.99,29.88,8,2,13,0.01
2013-6-13,95.8,86.5,75.1,79.5,76.7,68.5,93,74,50,29.89,29.65,14,5,26,0.00
2013-6-14,83.7,74.8,63.9,69.8,64.0,59.3,97,72,46,30.02,29.70,8,2,16,0.35
2013-6-15,85.3,73.6,58.2,66.1,58.3,52.8,98,63,34,30.13,30.02,8,1,15,0.00
2013-6-16,86.2,76.8,64.6,68.4,64.7,62.3,94,68,47,30.17,30.06,10,3,16,0.00
2013-6-17,87.7,77.5,67.0,73.1,69.5,64.5,95,77,57,30.09,29.98,9,2,15,0.00
2013-6-18,89.2,79.8,72.5,77.6,73.4,69.3,96,82,61,30.02,29.82,14,3,27,0.04
2013-6-19,78.0,73.6,71.1,75.8,71.0,66.8,98,92,84,30.09,29.86,10,2,14,0.82
2013-6-20,82.5,73.4,64.5,70.1,64.9,58.6,95,76,48,30.20,30.08,12,3,20,0.00
2013-6-21,84.0,73.1,62.3,74.3,67.6,58.5,96,84,68,30.20,30.14,13,3,17,0.03
2013-6-22,81.8,75.5,70.3,76.2,72.7,69.0,98,91,75,30.17,30.10,12,3,18,0.74
2013-6-23,84.2,76.9,71.2,77.0,73.7,70.0,98,90,75,30.23,30.16,8,1,15,0.30
2013-6-24,84.3,76.4,73.2,78.0,73.9,71.3,98,92,76,30.24,30.09,7,1,13,0.66
2013-6-25,89.8,79.4,73.5,78.9,74.0,69.0,98,84,59,30.17,30.04,9,2,17,0.02
2013-6-26,90.5,80.5,69.5,77.1,73.9,67.5,95,81,58,30.06,29.95,12,3,20,0.32
2013-6-27,88.0,78.1,69.0,79.5,73.9,67.6,98,88,71,29.99,29.76,16,4,26,1.24
2013-6-28,90.0,82.2,73.1,79.3,77.1,72.5,99,85,69,29.82,29.64,13,4,21,0.03
2013-6-29,84.5,79.3,73.6,76.6,74.5,71.1,95,85,74,29.80,29.65,14,5,24,0.03
2013-6-30,84.2,77.3,72.2,77.4,74.6,70.5,99,92,72,29.91,29.76,14,3,24,1.29
2013-7-1,78.7,76.1,72.7,76.5,74.2,71.5,98,94,87,30.08,29.88,12,4,21,0.63
2013-7-2,85.3,79.5,73.4,78.8,75.4,70.6,96,88,79,30.21,30.07,11,3,21,0.01
2013-7-3,86.3,80.6,75.7,79.0,76.3,73.5,96,87,76,30.27,30.18,12,3,23,0.01
2013-7-4,85.6,80.9,76.4,77.2,75.2,73.6,92,83,70,30.28,30.22,9,3,15,0.00
2013-7-5,86.1,80.4,74.7,78.8,75.5,72.5,97,86,74,30.29,30.20,11,2,16,0.03
2013-7-6,86.5,79.2,71.3,77.0,73.3,70.4,98,83,67,30.27,30.16,10,2,14,0.00
2013-7-7,87.2,79.3,69.6,75.5,72.0,68.4,99,80,60,30.22,30.10,9,2,15,0.00
2013-7-8,88.0,79.6,70.4,76.5,72.8,69.3,98,81,59,30.20,30.12,9,2,14,0.00
2013-7-9,90.2,80.6,73.3,76.8,73.6,71.7,96,80,58,30.20,30.11,10,2,14,0.01
2013-7-10,89.2,80.6,72.9,77.9,73.6,70.7,94,80,58,30.15,30.00,10,2,18,0.07
2013-7-11,87.7,80.6,75.0,78.0,74.8,72.6,93,83,66,30.02,29.90,11,2,17,0.10
2013-7-12,79.7,73.6,70.9,74.4,72.2,69.2,99,96,83,30.00,29.89,12,1,17,2.49
2013-7-13,83.0,77.2,71.3,77.5,74.1,70.5,99,91,81,30.17,29.98,14,3,23,0.52
2013-7-14,85.6,80.9,76.7,77.6,75.6,73.2,94,84,74,30.27,30.17,11,3,16,0.00
2013-7-15,87.0,80.6,73.9,77.4,75.0,72.8,97,84,67,30.28,30.24,10,2,14,0.00
2013-7-16,93.5,82.0,70.6,77.5,73.6,69.7,98,78,52,30.28,30.17,6,0,12,0.00
2013-7-17,92.5,81.8,74.9,80.1,74.6,71.6,94,80,63,30.21,30.11,7,1,13,0.00
2013-7-18,92.2,82.0,71.4,76.7,73.7,68.4,98,78,50,30.15,30.07,7,1,13,0.00
2013-7-19,90.2,82.5,74.1,78.3,74.9,72.3,95,79,59,30.14,30.03,11,2,20,0.04
2013-7-20,89.5,81.8,75.7,77.7,73.9,71.7,91,78,59,30.08,29.98,13,4,23,0.03
2013-7-21,85.6,79.6,74.4,77.7,74.1,70.5,93,83,72,30.04,29.94,9,3,15,0.01
2013-7-22,91.0,82.1,75.0,77.7,75.5,73.3,95,81,60,29.98,29.87,9,3,16,0.00
2013-7-23,89.6,81.5,76.4,76.9,74.8,72.9,90,81,63,29.91,29.75,10,4,16,0.00
2013-7-24,92.2,81.3,75.0,79.2,75.1,72.5,95,82,59,29.82,29.75,9,2,14,0.11
2013-7-25,89.9,80.2,71.5,76.4,73.2,70.3,97,81,60,30.00,29.77,7,1,12,0.00
2013-7-26,83.0,76.5,67.9,72.8,70.4,66.6,97,82,66,30.08,30.00,8,2,13,0.00
2013-7-27,84.8,77.6,67.6,75.7,72.4,66.4,98,85,71,30.06,29.95,9,2,13,0.00
2013-7-28,89.0,80.2,72.8,77.7,74.6,69.3,98,84,59,30.04,29.90,8,2,14,0.00
2013-7-29,90.6,77.5,71.0,78.3,73.9,68.8,98,90,60,30.16,30.02,15,1,23,1.52
2013-7-30,88.1,76.5,70.1,77.1,72.9,69.5,99,89,68,30.20,30.11,7,1,12,0.71
2013-7-31,84.0,77.7,71.2,77.0,73.9,70.6,99,89,73,30.15,30.03,8,1,12,0.01
2013-8-1,84.1,76.2,71.4,76.3,73.8,70.7,98,92,74,30.03,29.90,9,1,15,1.00
2013-8-2,88.5,81.0,73.9,80.6,75.7,72.9,98,85,67,30.04,29.93,8,2,13,0.11
2013-8-3,90.7,82.2,75.6,79.1,76.3,73.4,98,83,58,30.05,29.92,8,2,17,0.00
2013-8-4,93.7,80.1,68.5,79.8,73.7,66.2,97,82,57,30.03,29.87,9,1,17,0.32
2013-8-5,83.1,74.6,63.0,70.2,64.2,60.4,98,73,48,30.08,30.00,8,1,13,0.00
2013-8-6,84.2,75.2,64.6,70.6,66.4,61.1,96,75,57,30.08,30.00,8,1,13,0.00
2013-8-7,85.1,77.1,66.4,74.3,71.0,65.4,98,83,65,30.09,30.03,8,1,14,0.00
2013-8-8,89.3,80.2,71.6,79.0,74.9,70.7,98,85,64,30.07,30.01,7,0,12,0.00
2013-8-9,91.0,82.8,75.5,79.4,76.0,73.5,97,81,61,30.10,30.03,11,3,17,0.02
2013-8-10,94.5,84.6,76.7,79.4,76.8,74.5,96,79,57,30.11,30.03,12,3,17,0.00
2013-8-11,95.9,82.9,74.9,79.5,76.8,73.2,96,83,53,30.12,30.02,10,2,17,0.89
2013-8-12,98.0,84.0,75.1,80.0,76.1,72.2,95,79,50,30.07,29.93,15,2,20,0.21
2013-8-13,93.4,84.6,75.1,80.6,77.9,73.6,98,81,63,29.97,29.79,11,4,18,0.00
2013-8-14,82.7,74.5,67.8,78.1,71.7,63.5,99,91,76,30.05,29.81,9,1,17,1.00
2013-8-15,70.7,66.0,63.2,67.4,63.9,62.3,98,93,85,30.11,30.03,9,1,13,0.63
2013-8-16,74.6,69.5,64.6,70.6,67.8,63.3,98,94,86,30.12,30.04,7,1,12,0.10
2013-8-17,81.9,73.0,67.7,76.8,71.6,66.2,99,95,83,30.14,30.04,10,2,13,1.27
2013-8-18,91.6,78.4,70.4,78.0,74.0,69.8,99,88,57,30.20,30.12,7,1,9,0.00
2013-8-19,84.5,76.7,73.1,78.1,74.6,72.5,99,93,79,30.17,30.07,7,1,12,0.24
2013-8-20,84.8,76.5,71.4,78.7,74.5,70.8,99,94,80,30.18,30.08,8,1,12,0.23
2013-8-21,87.5,79.9,71.2,79.5,75.4,70.8,99,87,70,30.22,30.11,8,1,12,0.01
2013-8-22,90.0,76.7,71.2,78.5,73.2,69.0,98,90,66,30.15,30.01,6,0,13,0.33
2013-8-23,92.9,80.9,71.9,77.6,74.2,70.2,99,82,55,30.04,29.92,6,1,13,0.01
2013-8-24,83.1,75.2,68.8,71.4,68.3,64.7,96,80,58,30.24,30.00,11,2,15,0.01
2013-8-25,82.3,72.4,63.0,68.0,64.7,61.1,94,78,56,30.32,30.24,12,2,16,0.00
2013-8-26,86.0,72.1,60.2,69.4,64.2,58.8,96,78,47,30.28,30.13,6,1,9,0.00
2013-8-27,87.0,75.0,62.7,70.1,65.3,61.8,98,74,46,30.14,29.98,9,2,14,0.00
2013-8-28,92.0,81.3,72.9,76.5,71.6,65.3,84,73,55,30.03,29.91,8,1,12,0.00
2013-8-29,91.8,81.2,72.8,78.9,74.1,69.8,94,80,64,29.97,29.85,10,2,14,0.07
2013-8-30,83.3,75.1,68.1,73.7,70.8,67.2,97,87,66,30.03,29.96,7,1,12,0.01
2013-8-31,87.0,77.9,67.6,76.7,72.9,66.8,99,86,68,29.98,29.90,9,1,14,0.00
2013-9-1,92.4,81.8,74.9,78.0,75.7,73.2,98,83,55,29.95,29.84,9,2,17,0.00
2013-9-2,92.0,83.6,78.9,81.3,77.2,75.4,92,82,64,29.91,29.81,10,3,16,0.02
2013-9-3,88.8,79.9,71.2,78.5,74.2,67.5,92,83,67,29.95,29.82,11,2,16,0.01
2013-9-4,86.0,77.7,68.6,75.7,72.1,67.5,98,84,62,30.07,29.94,8,1,10,0.00
2013-9-5,88.5,79.4,72.0,79.4,75.2,70.9,99,88,70,30.08,30.00,5,0,10,0.00
2013-9-6,87.9,76.2,65.4,74.6,70.2,64.2,97,83,54,30.09,30.02,9,2,12,0.02
2013-9-7,85.5,73.3,62.7,68.0,63.7,58.1,95,74,43,30.09,29.98,9,2,13,0.00
2013-9-8,88.8,74.8,61.3,73.2,67.8,60.3,99,81,54,30.00,29.89,7,0,12,0.00
2013-9-9,87.0,76.9,67.5,75.4,71.0,66.6,98,83,64,30.16,29.99,9,1,13,0.00
2013-9-10,87.8,77.3,67.0,75.3,70.6,66.1,98,81,57,30.22,30.15,10,2,15,0.00
2013-9-11,85.9,75.4,67.4,75.4,69.8,66.5,98,84,56,30.21,30.09,6,0,10,0.00
2013-9-12,91.0,77.9,66.3,75.1,70.1,65.4,99,79,49,30.10,29.84,8,1,14,0.00
2013-9-13,90.5,79.4,71.0,75.7,71.2,65.2,88,77,52,29.84,29.73,8,1,12,0.00
2013-9-14,81.5,72.9,66.0,66.9,64.7,60.5,92,77,60,30.11,29.80,9,2,13,0.00
2013-9-15,81.0,72.8,63.1,72.1,67.1,61.6,96,83,68,30.21,30.10,10,2,15,0.00
2013-9-16,90.0,75.7,67.1,76.7,71.3,66.2,98,87,58,30.15,30.02,9,0,13,0.10
2013-9-17,78.8,69.9,60.5,67.0,62.1,55.1,93,77,54,30.25,30.12,12,3,19,0.01
2013-9-18,78.8,66.4,55.2,64.7,59.1,52.0,90,79,56,30.25,30.14,8,1,10,0.00
2013-9-19,79.8,67.4,56.1,60.9,57.9,54.5,97,74,44,30.18,30.08,9,1,13,0.00
2013-9-20,74.3,67.6,58.6,66.7,62.3,56.9,97,84,65,30.10,29.97,3,0,7,0.00
2013-9-21,80.7,72.3,66.9,73.7,69.4,65.4,98,91,76,29.97,29.75,7,1,12,0.33
2013-9-22,76.8,72.0,67.0,73.0,69.2,64.2,97,91,81,29.86,29.66,10,2,16,0.48
2013-9-23,77.3,66.6,56.4,64.3,58.1,54.2,95,76,48,30.07,29.86,10,2,14,0.00
2013-9-24,74.2,63.6,52.1,59.9,56.0,51.0,98,79,54,30.10,29.95,8,1,12,0.00
2013-9-25,73.8,64.8,53.9,63.8,59.3,53.0,98,83,67,29.97,29.85,10,2,14,0.00
2013-9-26,79.7,69.3,62.0,64.9,61.5,59.3,94,78,55,29.98,29.84,8,1,13,0.03
2013-9-27,78.2,66.2,58.5,63.6,58.7,55.1,95,78,52,30.13,29.97,13,2,20,0.00
2013-9-28,78.3,68.2,61.1,63.2,59.9,57.1,90,76,54,30.16,30.09,11,2,16,0.00
2013-9-29,79.0,66.1,56.7,64.2,60.1,55.6,97,83,54,30.12,29.99,7,1,13,0.00
2013-9-30,79.9,66.4,56.0,59.8,56.3,51.9,98,74,40,30.07,29.98,10,1,15,0.00
2013-10-1,80.5,65.3,51.7,61.1,56.7,50.4,98,77,47,30.13,30.03,8,0,12,0.00
2013-10-2,86.8,70.2,55.7,66.2,61.0,54.9,99,76,45,30.13,30.05,7,1,10,0.00
2013-10-3,85.3,71.6,59.1,70.8,65.4,58.2,99,83,53,30.15,30.09,8,1,13,0.00
2013-10-4,84.8,73.0,62.6,71.6,67.1,61.7,99,83,56,30.14,30.07,6,0,10,0.00
2013-10-5,86.2,73.1,62.0,72.4,66.7,60.8,99,83,48,30.13,30.06,7,1,12,0.00
2013-10-6,82.9,72.9,65.2,74.4,70.0,64.3,99,91,75,30.08,29.96,9,1,13,0.02
2013-10-7,82.9,76.8,72.2,74.7,72.9,71.0,98,88,73,29.97,29.85,11,2,18,0.20
2013-10-8,72.3,63.5,57.8,71.7,62.4,57.1,98,96,92,30.09,29.87,10,3,17,0.89
2013-10-9,63.4,60.3,58.0,61.0,58.7,57.1,98,94,90,30.06,29.96,10,4,20,0.03
2013-10-10,60.4,59.6,57.7,59.5,58.1,56.6,97,95,92,29.97,29.92,9,3,20,0.12
2013-10-11,71.5,64.6,60.4,64.7,61.9,59.5,98,91,78,29.96,29.89,6,1,10,0.00
2013-10-12,68.8,64.9,62.4,64.4,62.6,60.9,97,93,84,30.05,29.94,5,1,10,0.00
2013-10-13,75.8,69.2,65.6,69.4,66.6,64.4,98,92,78,30.10,30.00,6,1,12,0.01
2013-10-14,75.8,69.5,64.4,68.7,65.9,61.1,97,88,78,30.13,30.06,11,2,18,0.00
2013-10-15,72.0,65.0,61.0,65.4,62.0,59.0,96,90,78,30.12,29.98,7,1,15,0.00
2013-10-16,74.7,68.0,62.7,67.5,64.8,61.1,97,90,77,30.01,29.92,4,0,9,0.00
2013-10-17,81.1,68.8,58.0,68.3,63.9,57.2,99,86,60,29.99,29.86,8,1,13,0.00
2013-10-18,77.0,70.4,66.1,70.1,67.5,64.9,98,91,76,30.00,29.90,8,1,12,0.06
2013-10-19,76.4,70.2,65.9,72.6,69.0,65.2,99,96,87,29.96,29.81,5,0,8,0.16
2013-10-20,70.4,64.9,57.5,65.3,57.5,52.2,93,78,55,30.06,29.89,10,2,14,0.00
2013-10-21,66.5,61.6,59.8,57.9,56.9,55.4,89,84,72,30.05,30.02,1,0,4,0.01
2013-10-22,68.7,62.0,56.1,62.3,57.7,53.3,96,86,72,30.02,29.85,1,0,4,0.02
2013-10-23,72.9,61.9,52.6,61.1,53.7,39.5,98,77,42,29.99,29.69,11,2,21,0.17
2013-10-24,64.0,51.1,39.5,44.3,39.5,35.6,94,67,38,30.18,29.99,7,1,12,0.00
2013-10-25,60.6,48.8,37.6,44.2,38.3,33.3,97,70,39,30.36,30.16,7,1,17,0.00
2013-10-26,66.0,47.7,33.3,44.6,38.2,31.8,95,74,37,30.36,30.13,7,0,12,0.00
2013-10-27,68.6,53.5,40.4,51.3,44.4,38.6,96,75,43,30.16,30.08,5,0,9,0.00
2013-10-28,71.8,57.8,45.6,60.1,52.0,44.5,99,83,56,30.27,30.15,4,0,8,0.00
2013-10-29,74.2,60.8,49.6,62.4,55.6,48.8,98,84,63,30.33,30.24,7,1,9,0.00
2013-10-30,77.5,62.4,50.5,64.0,56.9,49.7,99,84,53,30.32,30.20,6,0,8,0.00
2013-10-31,80.0,66.0,52.9,69.2,61.8,51.8,99,87,57,30.23,30.01,11,1,18,0.00
2013-11-1,79.3,73.9,67.7,71.5,69.1,66.0,97,85,75,30.01,29.73,13,5,28,0.10
2013-11-2,75.5,65.3,57.3,70.3,62.0,51.3,98,90,71,29.91,29.67,10,1,18,0.83
2013-11-3,65.8,54.0,42.3,51.7,44.7,40.3,93,74,42,30.34,29.91,8,1,13,0.00
2013-11-4,61.6,48.6,38.9,45.9,40.2,37.1,96,75,48,30.49,30.34,12,2,18,0.00
2013-11-5,72.8,57.9,42.2,60.8,51.9,39.2,93,81,63,30.47,30.37,15,3,23,0.00
2013-11-6,73.9,63.0,53.7,65.9,59.4,50.8,98,88,75,30.37,30.10,13,3,18,0.07
2013-11-7,74.2,66.1,55.1,67.2,63.3,47.5,99,91,73,30.10,29.90,7,1,21,0.23
2013-11-8,60.2,49.1,37.5,48.3,37.0,32.1,94,66,36,30.33,30.01,10,2,15,0.00
2013-11-9,63.4,49.4,34.0,50.1,42.7,32.6,95,80,53,30.38,30.23,6,1,9,0.00
2013-11-10,59.1,50.6,46.8,51.4,48.3,45.3,96,92,74,30.25,30.21,2,0,5,0.00
2013-11-11,50.6,44.0,40.2,44.8,41.6,38.8,95,91,80,30.22,30.18,0,0,0,0.00
2013-11-12,69.5,51.2,36.5,49.5,39.5,26.5,98,68,38,30.38,30.02,11,2,23,0.00
2013-11-13,47.8,36.3,26.3,30.7,24.6,20.0,91,66,35,30.52,30.35,10,2,18,0.02
2013-11-14,61.4,40.6,23.8,34.9,27.5,21.3,97,67,23,30.53,30.38,6,0,8,0.00
2013-11-15,66.7,53.4,35.0,60.3,48.5,33.4,95,85,57,30.39,30.22,8,1,12,0.00
2013-11-16,75.1,64.2,58.0,66.1,60.1,56.5,98,87,64,30.25,30.17,9,1,12,0.00
2013-11-17,77.3,64.5,54.1,68.1,61.8,53.3,99,92,69,30.21,29.96,8,1,14,0.13
2013-11-18,82.8,72.0,59.0,71.3,67.3,48.8,97,86,65,29.97,29.75,12,3,21,0.00
2013-11-19,61.7,52.1,41.7,49.1,36.3,31.8,82,57,34,30.28,29.91,14,2,20,0.00
2013-11-20,59.9,48.2,39.0,47.5,41.3,34.6,91,78,60,30.40,30.24,12,1,16,0.00
2013-11-21,69.3,56.8,45.2,60.4,52.8,42.7,97,87,72,30.43,30.36,10,2,13,0.00
2013-11-22,74.8,63.3,53.5,65.1,59.5,52.7,98,88,68,30.38,30.11,6,1,9,0.00
2013-11-23,65.7,60.9,50.6,62.8,57.9,40.6,96,90,68,30.11,29.99,7,1,12,0.07
2013-11-24,50.4,38.6,24.5,41.0,19.5,9.5,74,48,26,30.57,30.10,12,3,21,0.00
2013-11-25,44.8,33.3,22.4,30.9,20.3,10.0,86,61,30,30.60,30.35,8,1,12,0.00
2013-11-26,71.1,56.0,34.8,69.5,54.0,31.0,98,93,77,30.35,29.65,14,3,30,0.79
2013-11-27,70.9,54.6,33.5,68.2,52.2,25.8,98,91,71,30.18,29.47,16,4,28,0.69
2013-11-28,47.8,35.2,27.9,31.2,25.7,22.2,94,71,39,30.51,30.18,7,1,14,0.00
2013-11-29,54.9,39.5,27.7,34.9,30.2,26.2,96,73,37,30.60,30.50,7,1,13,0.00
2013-11-30,58.7,45.1,31.5,45.5,38.0,28.3,90,77,59,30.59,30.33,5,1,12,0.00
2013-12-1,56.5,49.6,43.1,51.4,46.1,40.7,97,88,79,30.34,30.03,3,0,6,0.00
2013-12-2,58.2,49.7,40.9,49.3,46.6,39.3,98,90,71,30.02,29.83,5,0,8,0.00
2013-12-3,63.2,50.0,36.3,53.2,44.6,35.3,98,84,52,30.04,29.90,6,0,8,0.00
2013-12-4,72.5,60.4,54.2,66.5,58.4,52.6,99,93,74,30.13,30.02,6,0,9,0.22
2013-12-5,77.2,64.3,51.9,68.4,60.1,51.3,99,87,63,30.19,30.09,8,1,12,0.01
2013-12-6,78.3,71.7,68.3,70.8,68.2,66.8,96,89,74,30.15,30.03,13,5,21,0.00
2013-12-7,72.3,57.1,41.9,69.1,54.7,40.0,96,92,77,30.41,30.05,12,3,20,0.17
2013-12-8,44.1,41.8,40.4,42.1,40.5,39.1,97,95,92,30.40,30.28,8,2,13,0.02
2013-12-9,75.4,55.6,41.6,68.3,53.8,40.8,99,94,76,30.28,30.05,8,1,14,0.01
2013-12-10,71.9,58.0,38.4,66.7,55.7,35.1,99,92,83,30.34,29.86,12,3,26,0.09
2013-12-11,55.3,38.9,26.7,34.9,29.9,25.3,97,74,33,30.49,30.31,7,0,10,0.01
2013-12-12,51.0,38.3,27.1,32.7,28.7,24.5,95,72,37,30.41,30.28,10,1,18,0.00
2013-12-13,53.9,37.6,24.3,36.2,27.5,20.8,97,73,30,30.45,30.32,6,0,10,0.00
2013-12-14,68.0,56.1,36.2,67.0,52.3,33.3,97,87,79,30.33,29.78,15,3,28,0.62
2013-12-15,66.5,54.5,38.3,65.3,51.2,36.2,97,89,74,30.10,29.72,10,2,18,0.06
2013-12-16,61.1,44.1,31.7,45.3,36.8,29.9,96,79,41,30.22,30.10,6,0,8,0.00
2013-12-17,65.9,53.0,38.7,46.2,41.5,36.5,98,67,42,30.21,30.01,10,4,20,0.00
2013-12-18,55.7,45.0,30.8,39.5,31.9,26.4,91,63,33,30.34,30.02,8,1,17,0.00
2013-12-19,64.3,44.3,28.0,42.2,33.0,26.2,97,71,28,30.39,30.29,6,0,10,0.00
2013-12-20,75.1,55.5,39.6,63.1,51.5,37.6,97,87,57,30.30,30.17,8,0,12,0.00
2013-12-21,75.5,63.3,51.0,67.8,60.5,49.6,99,91,75,30.21,30.08,10,1,15,0.01
2013-12-22,79.5,72.0,65.9,71.7,68.2,64.7,98,88,75,30.15,30.08,13,4,20,0.00
2013-12-23,74.4,70.1,58.3,70.5,67.6,57.1,97,92,86,30.12,30.01,12,5,22,0.27
2013-12-24,58.2,47.2,33.8,57.1,42.6,30.4,97,85,58,30.43,30.03,8,2,16,0.19
2013-12-25,48.1,37.5,28.0,33.0,27.1,20.5,85,67,50,30.53,30.38,9,2,12,0.00
2013-12-26,46.1,41.1,36.9,43.4,37.4,32.5,93,87,79,30.37,30.25,6,0,10,0.00
2013-12-27,56.4,42.1,32.2,37.2,33.7,30.0,94,75,40,30.44,30.34,9,1,14,0.00
2013-12-28,63.8,45.9,27.4,49.3,37.1,26.2,97,75,38,30.42,30.15,6,1,10,0.00
2013-12-29,69.0,63.4,50.9,66.6,60.3,48.8,96,90,82,30.14,29.75,20,4,33,0.19
2013-12-30,61.9,50.4,41.4,50.0,45.5,40.6,99,85,58,30.15,29.95,5,0,8,0.01
2013-12-31,57.4,47.1,37.0,45.6,40.1,33.1,96,79,41,30.39,30.12,8,1,12,0.00
2014-1-1,52.8,43.3,33.6,44.3,38.5,32.3,97,84,57,30.44,30.17,7,1,10,0.03
2014-1-2,58.8,50.3,45.4,58.5,49.5,43.8,99,97,93,30.17,29.58,12,1,21,0.67